Girona - FEDAC St.Narcís (Gironés)





Hora UTC 06:35
Temperatura 17.8 ºC
Humitat 88.0 %
Pressió 1011.7 hPa
Pluja 0.0 mm
Velocitat vent 3.2 km/h
Direcció vent

Dades diàries 2024-05-30



Hora UTC (hivern +1h; estiu +2h)
Temperatura (ºC) Humitat (%) Pressió (hPa) Velocitat vent (km/h) Precipitació (mm)
Hora UTC Aire Humitat Pressió Vel. Dir. Vel. Max Dir. Intent. màx 5 min.
00:05 19.7 86.0 1013.5 1.6 1.6 0.0
00:15 19.7 86.0 1013.4 1.6 4.8 0.0
00:25 19.6 86.0 1013.3 0.0 4.8 0.0
00:35 19.6 87.0 1013.2 1.6 4.8 0.0
00:45 19.6 87.0 1013.2 0.0 4.8 0.0
00:55 19.6 87.0 1013.1 1.6 4.8 0.0
01:05 19.6 87.0 1013.0 0.0 4.8 0.0
01:15 19.5 87.0 1012.9 1.6 4.8 0.0
01:25 19.3 88.0 1012.9 0.0 4.8 0.0
01:35 19.2 88.0 1012.8 0.0 6.4 0.0
01:45 19.0 88.0 1012.7 3.2 6.4 0.0
01:55 18.8 88.0 1012.7 1.6 6.4 0.0
02:05 18.8 88.0 1012.6 0.0 6.4 0.0
02:15 18.7 88.0 1012.5 0.0 6.4 0.0
02:25 18.6 88.0 1012.6 0.0 6.4 0.0
02:35 18.4 89.0 1012.5 0.0 6.4 0.0
02:45 18.3 89.0 1012.3 1.6 6.4 0.0
02:55 18.2 89.0 1012.2 1.6 6.4 0.0
03:05 18.2 89.0 1012.1 0.0 6.4 0.0
03:15 18.1 90.0 1012.0 0.0 6.4 0.0
03:25 17.9 90.0 1011.9 1.6 6.4 0.0
03:35 17.8 90.0 1011.8 0.0 6.4 0.0
03:45 17.7 90.0 1011.8 0.0 6.4 0.0
03:55 17.5 90.0 1011.8 0.0 6.4 0.0
04:05 17.6 90.0 1011.8 1.6 6.4 0.0
04:15 17.4 90.0 1011.7 0.0 6.4 0.0
04:25 17.3 90.0 1011.7 0.0 6.4 0.0
04:35 17.2 90.0 1011.6 0.0 6.4 0.0
04:45 17.0 90.0 1011.7 1.6 6.4 0.0
04:55 16.8 90.0 1011.6 1.6 6.4 0.0
05:05 16.7 89.0 1011.6 1.6 6.4 0.0
05:15 16.7 90.0 1011.7 1.6 6.4 0.0
05:25 16.7 89.0 1011.8 1.6 6.4 0.0
05:35 16.9 90.0 1011.8 0.0 6.4 0.0
05:45 17.2 89.0 1011.7 0.0 6.4 0.0
05:55 17.3 89.0 1011.8 1.6 6.4 0.0
06:05 17.3 88.0 1011.9 4.8 11.3 0.0
06:15 17.4 89.0 1011.8 0.0 11.3 0.0
06:25 17.7 89.0 1011.8 0.0 11.3 0.0
06:35 17.8 88.0 1011.7 3.2 11.3 0.0
Màxima 19.9 90.0 1013.5 4.8 11.3 0.0
Mínima 16.7 86.0 1011.6
Total 0.0